Home   Weather   Plovdiv   Past weeks

Flag for Bulgaria Past Weather in Plovdiv, Bulgaria — Yesterday and Last 2 Weeks

55 °F


Feels Like: 53 °F
Forecast: 35 / 56 °F
Wind: 10 mph from Southeast

Location: Plovdiv Airport

Current Time: Oct 27, 2016 at 12:16:54 PM

Latest Report: Oct 27, 2016 at 11:30 AM

Visibility: N/A

Pressure: 30.30 "Hg

Humidity: 63%

Dew Point: 43 °F

Location of PlovdivLocation

Past Weather in Plovdiv — Graph


Plovdiv Temperature Yesterday

Maximum temperature yesterday: 57 °F (at 3:00 PM)
Minimum temperature yesterday: 52 °F (at 5:00 AM)
Average temperature yesterday: 54 °F

High & Low Weather Summary for the Past Weeks

High68 °F (Oct 14, 4:30 PM)100% (Oct 12, 11:00 AM)30.51 "Hg (Oct 12, 11:00 AM)
Low39 °F (Oct 14, 7:00 AM)35% (Oct 13, 5:00 PM)29.65 "Hg (Oct 12, 12:00 PM)
Average54 °F80%30.20 "Hg
* Reported Oct 12 11:00 AM — Oct 27 11:00 AM, Plovdiv, Weather by CustomWeather, © 2016

Note: Actual official high and low records may vary slightly from our data, if they occured in-between our weather recording intervals... More about our weather records


Plovdiv Weather History for the Previous 24 Hours

Scroll right to see more
Time TempWeatherWind HumidityBarometerVisibility
11:00 AM
Thu, Oct 27
55 °FMostly cloudy.14 mph59%30.27 "HgN/A
10:30 AM55 °FMore clouds than sun.14 mph63%30.27 "HgN/A
10:00 AM54 °FMostly cloudy.14 mph67%30.27 "HgN/A
9:30 AM54 °FOvercast.15 mph72%30.27 "HgN/A
9:00 AM54 °FOvercast.15 mph77%30.24 "HgN/A
8:30 AM52 °FOvercast.17 mph88%30.24 "HgN/A
8:00 AM52 °FOvercast.16 mph88%30.21 "HgN/A
7:30 AM54 °FOvercast.16 mph82%30.21 "HgN/A
7:00 AM54 °FOvercast.15 mph82%30.18 "HgN/A
6:30 AM55 °FOvercast.12 mph77%30.18 "HgN/A
6:00 AM55 °FOvercast.12 mph77%30.18 "HgN/A
5:30 AM57 °FOvercast.12 mph72%30.18 "HgN/A
5:00 AM55 °FOvercast.9 mph77%30.15 "HgN/A
4:30 AM55 °FMostly cloudy.8 mph82%30.15 "HgN/A
4:00 AM55 °FMostly cloudy.6 mph88%30.15 "HgN/A
3:30 AM55 °FMostly cloudy.6 mph88%30.15 "HgN/A
3:00 AM55 °FOvercast.5 mph88%30.12 "HgN/A
2:30 AM55 °FOvercast.7 mph88%30.12 "HgN/A
2:00 AM55 °FOvercast.5 mph88%30.12 "HgN/A
1:30 AM55 °FOvercast.3 mph88%30.12 "Hg6 mi
1:00 AM55 °FMostly cloudy.2 mph88%30.12 "Hg6 mi
12:30 AM54 °FMostly cloudy.3 mph94%30.12 "Hg6 mi
12:00 AM54 °FPassing clouds.3 mph94%30.12 "Hg5 mi
11:30 PM
Wed, Oct 26
54 °FOvercast.No wind94%30.12 "Hg6 mi
11:00 PM54 °FMostly cloudy.2 mph94%30.12 "Hg6 mi
10:30 PM54 °FMostly cloudy.No wind94%30.12 "Hg6 mi
10:00 PM54 °FMostly cloudy.2 mph94%30.09 "Hg6 mi
9:30 PM55 °FOvercast.No wind82%30.09 "Hg6 mi
9:00 PM55 °FOvercast.No wind88%30.09 "HgN/A
8:30 PM55 °FOvercast.5 mph88%30.09 "HgN/A
8:00 PM55 °FSprinkles. Overcast.3 mph82%30.09 "HgN/A
7:30 PM55 °FPassing clouds.1 mph82%30.09 "HgN/A
7:00 PM55 °FMostly cloudy.No wind77%30.09 "HgN/A
6:30 PM55 °FOvercast.2 mph82%30.09 "HgN/A
6:00 PM55 °FPartly sunny.5 mph77%30.09 "HgN/A
5:30 PM57 °FPartly sunny.6 mph72%30.09 "HgN/A
5:00 PM57 °FPartly sunny.12 mph72%30.09 "HgN/A
4:30 PM57 °FPartly sunny.7 mph72%30.09 "HgN/A
4:00 PM57 °FOvercast.6 mph72%30.09 "HgN/A
3:30 PM57 °FOvercast.6 mph72%30.09 "HgN/A
3:00 PM57 °FOvercast.5 mph72%30.09 "HgN/A
2:30 PM55 °FOvercast.6 mph82%30.12 "HgN/A
2:00 PM55 °FSprinkles. Passing clouds.3 mph82%30.12 "HgN/A
1:30 PM55 °FPassing clouds.1 mph77%30.15 "HgN/A
1:00 PM54 °FPartly sunny.2 mph82%30.18 "HgN/A
12:30 PM54 °FOvercast.3 mph82%30.18 "HgN/A
12:00 PM54 °FOvercast.5 mph82%30.21 "HgN/A
Weather by CustomWeather, © 2016

See weather overviewHow to use our weather pages